Regional Weather Roundup
Issued by NWS

Home | Current Version | Previous Version | Graphics & Text | Print | Product List | Glossary On
Versions: 1 2 3 4 5 6 7 8 9 10 11 12 13 14 15 16 17 18 19 20 21 22 23 24 25 26 27 28 29 30 31 32 33 34 35 36 37 38 39 40 41 42 43 44 45 46 47 48 49 50
000
ASUS43 KMPX 101310
RWRMN
WEATHER ROUNDUP FOR MINNESOTA
NATIONAL WEATHER SERVICE TWIN CITIES/CHANHASSEN MN
800 AM CDT THU JUL 10 2014


NOTE: "FAIR" INDICATES FEW OR NO CLOUDS BELOW 12,000 FEET WITH NO
SIGNIFICANT WEATHER AND/OR OBSTRUCTIONS TO VISIBILITY. N/A MEANS
CURRENT SKY AND/OR WEATHER CONDITIONS ARE NOT AVAILABLE.

MNZ060>063-068>070-101400-
   Twin Cities Metro

CITY           SKY/WX    TMP DP  RH WIND       PRES   REMARKS
TWIN CITIES    MOSUNNY   64  58  80 SE8       30.06R
ST PAUL        MOSUNNY   65  59  81 SE6       30.06S
CRYSTAL        MOSUNNY   67  58  72 SE6       30.04S
BLAINE         SUNNY     66  61  82 SE5       30.06R
LAKEVILLE      MOSUNNY   63  57  82 S3        30.07R
EDEN PRAIRIE   SUNNY     65  59  81 SE3       30.05R
SOUTH ST PAUL  MOSUNNY   65  58  77 SE7       30.07R
LAKE ELMO      FAIR      64  59  82 S6        30.08R
$$
MNZ001>005-007-008-013>017-022>024-027-028-101400-
   Northwest Minnesota

CITY           SKY/WX    TMP DP  RH WIND       PRES   REMARKS
BEMIDJI        SUNNY     59  55  85 S3        30.02R
HALLOCK        SUNNY     63  55  77 S10       29.93S
ROSEAU         SUNNY     61  54  77 S6        29.97F
WARROAD        SUNNY     61  55  82 S3        29.98S HAZE
THIEF RVR FALL SUNNY     61  54  77 S7        29.98S
CROOKSTON      SUNNY     63  55  77 S9        29.97S
FOSSTON        SUNNY     63  54  72 S7        30.00S
DETROIT LAKES  SUNNY     63  57  82 SE5       30.02S
MOORHEAD       SUNNY     63  55  77 SE9       29.98S
PARK RAPIDS    SUNNY     59  55  87 CALM      30.03R
$$
MNZ006-009>011-018-025>026-101400-
   North Central Minnesota

CITY           SKY/WX    TMP DP  RH WIND       PRES   REMARKS
BAUDETTE       SUNNY     61  55  81 S3        30.00S
FLAG ISLAND    SUNNY     64  57  77 S5        29.97S
INTL FALLS     SUNNY     59  54  83 SE3       30.02R
WASKISH        SUNNY     61  55  82 SE2       30.00S
LONGVILLE      SUNNY     57  57 100 CALM      30.02F
GRAND RAPIDS   SUNNY     59  54  82 SE6       30.04S
CRANE LAKE     SUNNY     57  54  88 S3        30.06S
ORR            SUNNY     57  52  82 S5        30.02S
COOK           SUNNY     61  54  77 SE3       30.05S
$$
MNZ012-019>021-037-101400-
   Northeast Minnesota

CITY           SKY/WX    TMP DP  RH WIND       PRES   REMARKS
DULUTH         MOSUNNY   61  53  75 S7        30.07S
ELY            MOSUNNY   63  54  72 SW5       30.07R
HIBBING        SUNNY     58  52  80 VRB3      30.06S
EVELETH        MOSUNNY   57  52  82 CALM      30.07S
DULUTH HARBOR  MOSUNNY   55  54  94 NE6       30.08S
TWO HARBORS    MOSUNNY   57  52  82 CALM      30.06S
SILVER BAY     SUNNY     57  55  94 CALM      30.07S
GRAND MARAIS     N/A     49  45  86 CALM      30.09R
G MARAIS ARPRT CLOUDY    57  48  72 CALM      30.11R
$$
MNZ029>031-032-039>041-046>048-054>057-064-101400-
   West Central Minnesota

CITY           SKY/WX    TMP DP  RH WIND       PRES   REMARKS
FERGUS FALLS   SUNNY     66  54  63 SE6       30.01R
WHEATON        SUNNY     61  55  82 SE8       30.01R
MORRIS         SUNNY     63  57  82 SE6       30.00S
ALEXANDRIA     SUNNY     64  52  64 SE7       30.04R
WADENA         SUNNY     59  54  82 CALM      30.02S
GLENWOOD       SUNNY     63  55  77 SE5       30.03S
APPLETON       SUNNY     64  55  72 SE7       30.00S
BENSON         SUNNY     64  54  68 S9        30.01S
ORTONVILLE     SUNNY     63  57  82 SE5       30.00R
MADISON        SUNNY     64  57  77 S3        30.00S
WILLMAR        FAIR      66  55  68 SE7       30.04S
$$
MNZ033>034-036-042>043-049>051-058-059-101400-
   Central Minnesota

CITY           SKY/WX    TMP DP  RH WIND       PRES   REMARKS
ST CLOUD       SUNNY     61  59  93 SE3       30.04S
SAUK CENTRE    FAIR      60  58  91 CALM      30.04S
PAYNESVILLE    MOSUNNY   61  56  84 E5        30.05R
AITKIN         SUNNY     66  61  82 S5        30.02S
PINE RIVER       N/A     57  57 100 CALM      30.06S
BRAINERD       SUNNY     65  56  72 S5        30.04S
STAPLES        SUNNY     59  55  88 CALM      30.03S
LONG PRAIRIE   FAIR      61  57  88 SE3       30.04S
LITTLE FALLS   SUNNY     59  55  88 CALM      30.04R
LITCHFIELD     MOSUNNY   64  61  88 SE5       30.05R
BUFFALO        SUNNY     65  58  77 SE3       30.06R
MAPLE LAKE     SUNNY     65  61  86 CALM      30.06R
$$
MNZ037-044-045-052-053-101400-
   East Central Minnesota

CITY           SKY/WX    TMP DP  RH WIND       PRES   REMARKS
PRINCETON      SUNNY     66  61  82 SE3       30.05S
MORA           SUNNY     61  57  88 CALM      30.07S
CAMBRIDGE      SUNNY     66  55  68 SE6       30.04R
RUSH CITY      SUNNY     63  57  83 SE7       30.06S
MOOSE LAKE     SUNNY     61  55  82 CALM      30.04F
HINCKLEY       FAIR      61  57  88 SE5       30.06S
CLOQUET        SUNNY     61  54  77 SE3       30.07S
MCGREGOR       SUNNY     61  55  82 S5        30.05S
$$
MNZ071>073-080-081-089-090-097-098-101400-
   Southwest Minnesota

CITY           SKY/WX    TMP DP  RH WIND       PRES   REMARKS
MONTEVIDEO     SUNNY     64  55  72 S6        30.02S
GRANITE FALLS  SUNNY     64  54  72 SE7       30.03S
CANBY          SUNNY     61  57  88 SE3       30.02R
MARSHALL       SUNNY     63  57  82 MISG      30.01S
REDWOOD FALLS  SUNNY     65  57  75 SE7       30.02S
OLIVIA         SUNNY     64  54  68 SE6       30.02S
PIPESTONE      SUNNY     64  59  82 SE6       30.03R
WINDOM         SUNNY     66  61  82 S3        30.05S
WORTHINGTON    SUNNY     64  61  88 S5        30.06R
JACKSON        SUNNY     64  61  88 S6        30.06S
TRACY          SUNNY     67  60  77 SW8       30.03R
SLAYTON        SUNNY     65  60  84 CALM      30.04F
$$
MNZ065>067-074>077-082>085-091>093-101400-
   South Central Minnesota

CITY           SKY/WX    TMP DP  RH WIND       PRES   REMARKS
MANKATO        PTSUNNY   64  57  77 S7        30.06R
NEW ULM        MOSUNNY   63  59  88 SE5       30.04S
ST JAMES       SUNNY     64  61  88 S5        30.06R
FAIRMONT       SUNNY     66  59  77 S6        30.06S
GLENCOE        MOSUNNY   65  58  75 E3        30.04S
FARIBAULT      SUNNY     66  57  72 CALM      30.06F
OWATONNA       SUNNY     64  61  88 S3        30.07S
WASECA         SUNNY     63  54  72 SE3       30.08S
ALBERT LEA     MOSUNNY   66  61  82 CALM      30.08R
$$
MNZ078>079-086>088-094>096-101400-
   Southeast Minnesota

CITY           SKY/WX    TMP DP  RH WIND       PRES   REMARKS
ROCHESTER      SUNNY     62  58  86 SE8       30.10R
RED WING       SUNNY     66  59  77 SE7       30.07R
STANTON        SUNNY     65  58  79 S3        30.06S
DODGE CENTER   MOSUNNY   63  59  88 SE5       30.09R
WINONA         MOSUNNY   63  59  88 SE5       30.10R
AUSTIN         SUNNY     63  61  94 S3        30.08S
PRESTON        MOSUNNY   62  58  87 S8        30.11R
$$
ABBREVIATIONS USED IN REMARKS
   TC - TEMPERATURES IN CELSIUS
  WCI - WIND CHILL INDEX
   HX - HEAT INDEX
  VSB - VISIBILITY
$$



USA.gov is the U.S. government's official web portal to all federal, state and local government web resources and services.